Location: Newark
(21.1200°N, 73.4000°E)
Time: 14:50:24
(UTC+00:00)

Courier 1B - Visible Passes

Search period start: 28 January 2020 00:00
Search period end: 07 February 2020 00:00
Orbit: 962 x 1209 km, 28.3° (Epoch: 27 January)

Date Brightness Start Highest point End Pass type
(mag) Time Alt. Az. Time Alt. Az. Time Alt. Az.
28 Jan 8.0 01:00:17 13° WNW 01:07:14 73° NNE 01:15:04 10° ESE visible
28 Jan 9.7 22:23:00 21° ENE 22:23:00 21° ENE 22:25:25 10° ENE visible
29 Jan 8.0 00:09:54 35° NW 00:13:09 63° NNE 00:20:51 10° E visible
29 Jan 8.1 23:19:31 54° NNE 23:19:31 54° NNE 23:26:33 10° E visible
30 Jan 8.0 01:06:24 11° WNW 01:13:44 81° SSW 01:21:35 10° ESE visible
30 Jan 9.5 22:29:09 25° ENE 22:29:09 25° ENE 22:32:14 10° E visible
31 Jan 7.8 00:16:03 33° WNW 00:19:44 83° NNE 00:27:31 10° ESE visible
31 Jan 9.9 15:43:39 10° SSW 15:43:42 10° SSW 15:43:42 10° SSW visible
31 Jan 7.8 23:25:42 70° NNE 23:25:44 70° NNE 23:33:20 10° E visible
01 Feb 8.3 01:12:53 10° W 01:20:06 53° SSW 01:27:39 10° SE visible
01 Feb 9.5 14:51:26 10° S 14:53:28 13° SSE 14:53:28 13° SSE visible
01 Feb 9.3 22:35:24 30° E 22:35:24 30° E 22:39:05 10° E visible
02 Feb 7.9 00:22:18 30° W 00:26:12 68° SSW 00:33:50 10° ESE visible
02 Feb 9.6 15:48:41 10° SW 15:50:10 17° SSW 15:50:10 17° SSW visible
02 Feb 7.6 23:32:01 82° WSW 23:32:16 84° SSW 23:39:52 10° ESE visible
03 Feb 8.8 14:55:34 10° SSW 14:59:59 26° SSE 14:59:59 26° SSE visible
03 Feb 9.0 22:41:45 35° ESE 22:41:45 35° ESE 22:45:47 10° ESE visible
04 Feb 8.4 00:28:40 24° W 00:32:33 42° SSW 00:39:39 10° SE visible
04 Feb 9.1 14:02:46 10° SSW 14:07:15 19° SSE 14:09:49 15° ESE visible
04 Feb 9.4 15:54:33 10° SW 15:56:43 22° SW 15:56:43 22° SW visible
04 Feb 10.4 21:51:32 10° E 21:51:32 10° E 21:51:37 10° E visible
04 Feb 7.9 23:38:26 55° SW 23:38:41 55° SSW 23:45:59 10° SE visible
05 Feb 8.0 15:01:01 10° SW 15:06:33 45° S 15:06:33 45° S visible
05 Feb 9.0 22:48:14 34° SE 22:48:14 34° SE 22:52:10 10° ESE visible
06 Feb 9.1 00:35:08 16° WSW 00:38:53 24° SSW 00:44:45 10° SSE visible
06 Feb 8.3 14:07:38 10° SW 14:13:37 35° SSE 14:16:23 25° ESE visible
06 Feb 9.4 16:00:57 10° WSW 16:03:18 24° WSW 16:03:18 24° WSW visible
06 Feb 10.3 21:58:03 11° ESE 21:58:03 11° ESE 21:58:12 10° ESE visible
06 Feb 8.6 23:44:57 32° SSW 23:45:03 32° SSW 23:51:31 10° SSE visible
